Precipitable_Water
0.53 0.79 0.95 1.04 1.16 1.22 1.26 1.20 1.24 1.37 1.39 1.34 1.36 1.48 1.51 1.58 1.67 1.76 1.82 1.90 1.99 2.00 2.00 2.05 2.14 2.13 2.10 2.08 1.96 1.87 1.90 1.63 1.54
0.59 0.76 0.91 0.99 1.13 1.17 1.19 1.17 1.20 1.34 1.45 1.45 1.37 1.30 1.40 1.44 1.49 1.49 1.52 1.60 1.74 1.81 1.97 2.06 2.17 2.16 2.16 2.14 2.10 1.97 1.93 1.70 1.63
0.62 0.68 0.95 1.02 1.11 1.12 1.16 1.13 1.18 1.28 1.40 1.44 1.53 1.50 1.40 1.35 1.36 1.43 1.45 1.52 1.56 1.71 1.85 1.99 2.08 2.12 2.15 2.09 2.11 2.08 1.97 1.85 1.84
0.76 0.79 0.96 1.04 1.13 1.10 1.14 1.16 1.21 1.21 1.32 1.41 1.48 1.56 1.57 1.52 1.50 1.50 1.47 1.41 1.51 1.63 1.79 1.86 2.01 2.05 1.99 2.00 2.01 2.04 2.00 1.98 1.95
0.87 0.88 0.96 1.08 1.09 1.06 1.12 1.13 1.19 1.19 1.33 1.41 1.50 1.57 1.59 1.57 1.61 1.63 1.59 1.54 1.44 1.47 1.57 1.70 1.81 1.98 2.08 2.04 1.98 1.96 1.92 1.89 1.82
0.97 1.09 1.05 1.02 1.05 1.04 1.07 1.13 1.18 1.19 1.35 1.43 1.54 1.58 1.58 1.58 1.63 1.65 1.66 1.65 1.59 1.44 1.44 1.54 1.66 1.73 1.88 1.93 2.00 2.03 2.00 1.95 1.87
1.04 1.06 1.30 1.33 1.36 1.16 1.09 1.12 1.16 1.22 1.31 1.50 1.62 1.60 1.56 1.54 1.55 1.61 1.65 1.69 1.71 1.59 1.44 1.41 1.45 1.53 1.68 1.74 1.82 1.92 1.90 1.87 1.88
1.01 0.99 1.21 1.31 1.43 1.63 1.57 1.18 1.21 1.31 1.39 1.44 1.55 1.64 1.58 1.53 1.60 1.64 1.65 1.65 1.69 1.77 1.69 1.53 1.48 1.34 1.44 1.62 1.70 1.77 1.80 1.81 1.82
1.06 1.04 1.05 1.16 1.32 1.55 2.23 1.42 1.33 1.40 1.44 1.55 1.62 1.58 1.65 1.66 1.66 1.65 1.67 1.67 1.68 1.69 1.73 1.70 1.61 1.52 1.39 1.38 1.52 1.64 1.68 1.72 1.72
1.15 1.17 1.12 1.15 1.38 1.48 2.18 1.93 1.70 1.70 1.73 1.79 1.70 1.68 1.71 1.74 1.72 1.67 1.71 1.74 1.72 1.67 1.71 1.77 1.67 1.60 1.56 1.46 1.44 1.52 1.65 1.68 1.67
1.12 1.14 1.19 1.23 1.17 1.54 2.04 2.07 1.91 1.88 1.89 1.88 1.92 1.82 1.78 1.84 1.80 1.74 1.79 1.76 1.71 1.72 1.79 1.80 1.77 1.67 1.62 1.54 1.51 1.57 1.61 1.68 1.64
1.25 1.27 1.31 1.30 1.30 1.26 1.63 2.03 2.06 2.04 1.99 1.91 1.86 1.84 1.83 1.90 1.94 1.85 1.83 1.74 1.73 1.77 1.77 1.80 1.82 1.85 1.73 1.63 1.53 1.59 1.58 1.61 1.62
1.18 1.27 1.36 1.33 1.27 1.17 1.16 1.46 1.86 1.79 1.93 1.94 1.75 1.83 1.88 1.93 1.96 2.03 1.89 1.82 1.80 1.80 1.82 1.80 1.83 1.85 1.86 1.82 1.75 1.75 1.68 1.63 1.58
1.06 1.06 1.14 1.26 1.29 1.24 1.30 1.38 1.42 1.54 1.62 1.67 1.78 1.86 1.87 1.92 1.93 1.91 1.92 1.92 1.91 1.85 1.87 1.90 1.88 1.86 2.01 2.14 2.11 2.02 1.97 1.88 1.84
0.95 0.97 1.02 1.08 1.21 1.19 1.23 1.28 1.30 1.35 1.41 1.54 1.60 1.56 1.58 1.80 1.93 1.96 1.89 1.85 1.91 1.97 1.90 1.84 1.88 2.00 2.08 2.19 2.10 1.93 1.68 1.54 1.36
0.85 0.89 0.89 0.92 0.94 1.01 1.18 1.29 1.32 1.23 1.42 1.53 1.49 1.50 1.56 1.53 1.58 1.77 1.81 1.75 1.89 1.85 1.83 1.77 1.69 1.51 1.52 1.96 1.91 1.62 1.49 1.44 1.50
0.82 0.81 0.83 0.89 0.91 0.93 0.98 1.12 1.17 1.25 1.34 1.43 1.41 1.43 1.48 1.53 1.41 1.37 1.46 1.56 1.66 1.65 1.66 1.57 1.56 1.39 1.45 1.55 1.51 1.52 1.55 1.57 1.61
0.91 0.89 0.84 0.87 0.89 0.90 0.88 1.01 1.15 1.19 1.23 1.29 1.33 1.36 1.44 1.50 1.58 1.53 1.49 1.46 1.46 1.39 1.43 1.37 1.22 1.23 1.28 1.31 1.36 1.28 1.31 1.31 1.34
1.06 0.99 0.95 0.91 0.86 0.85 0.91 0.95 0.96 1.13 1.24 1.26 1.23 1.23 1.28 1.37 1.45 1.54 1.57 1.54 1.51 1.60 1.52 1.41 1.45 1.44 1.32 1.35 1.32 1.37 1.35 1.36 1.32
1.09 1.11 1.08 1.01 0.97 0.92 0.88 0.89 0.94 0.97 1.09 1.19 1.18 1.20 1.22 1.23 1.23 1.29 1.35 1.45 1.51 1.42 1.59 1.62 1.57 1.47 1.36 1.35 1.40 1.44 1.40 1.40 1.38
Wind_Speed
11 14 16 15 13 12 11 12 13 13 13 12 14 14 14 15 16 16 16 15 15 16 15 15 16 17 19 20 20 19 16 14 13
13 15 18 17 15 14 13 13 13 14 13 12 12 13 13 14 14 15 14 15 15 16 16 14 15 16 19 19 21 19 17 16 14
11 14 19 18 17 16 14 14 15 15 15 14 13 12 12 12 13 13 13 13 14 14 16 15 14 12 13 16 19 20 19 17 16
15 15 18 18 18 17 16 15 16 16 15 15 14 13 12 12 11 11 11 12 12 12 13 14 13 13 12 14 17 19 18 17 17
13 17 18 20 19 19 18 17 17 17 16 16 15 14 14 13 11 11 11 11 11 11 11 12 14 13 12 14 15 16 17 18 17
8 9 20 21 20 22 21 20 19 19 17 17 16 15 14 14 14 12 12 11 10 11 11 11 13 14 15 15 14 16 17 17 17
12 9 12 14 16 24 25 24 22 21 20 19 18 16 15 15 15 14 13 12 12 11 11 11 11 12 14 15 16 16 16 17 17
12 21 18 20 22 27 29 27 24 22 22 21 20 19 17 16 15 15 15 14 14 12 12 12 12 12 13 14 15 16 17 18 18
17 19 23 24 31 41 34 27 25 23 22 21 21 21 20 18 16 16 15 15 15 15 14 14 13 13 14 14 15 16 16 17 18
22 21 22 26 27 45 18 18 20 22 20 21 21 22 21 21 19 18 17 16 16 16 16 15 15 14 14 15 16 16 17 17 18
21 22 23 28 32 31 8 11 17 19 20 20 20 21 22 22 21 20 19 19 18 18 17 17 16 16 16 16 16 17 18 18 19
24 24 25 23 26 27 18 4 9 12 17 20 22 21 20 22 22 22 22 21 21 21 21 20 19 17 17 17 17 17 17 18 20
23 22 23 24 23 25 24 15 17 4 13 16 17 18 21 22 22 22 22 23 23 23 24 24 23 22 21 20 18 18 18 18 19
24 25 26 26 24 22 22 20 17 12 13 13 16 18 19 21 23 23 22 23 24 24 25 24 25 26 24 22 20 18 17 18 20
24 25 24 26 27 27 28 26 24 23 21 19 16 16 18 21 22 23 23 24 25 25 26 26 25 25 25 21 18 20 19 21 23
25 25 27 28 30 31 32 29 29 27 27 25 22 22 21 21 21 23 25 26 26 26 25 26 25 26 23 19 18 19 22 22 20
31 29 29 27 28 30 30 30 31 33 33 31 29 29 28 28 27 26 26 25 25 25 26 28 29 30 28 27 26 24 23 23 23
29 29 30 30 29 29 30 30 31 31 33 36 34 34 33 33 33 32 31 31 31 30 31 32 30 28 27 26 26 25 24 25 26
26 27 27 29 30 30 30 31 31 31 32 32 33 34 34 34 34 35 36 35 33 33 33 33 33 32 30 29 29 28 27 27 25
25 26 26 27 29 32 31 32 33 33 33 33 33 33 33 34 35 36 35 36 37 37 36 35 34 33 32 31 31 30 29 28 25
Wind_Direction
234 208 206 207 209 209 210 203 201 200 199 202 205 209 213 216 219 223 227 229 230 231 238 244 241 242 240 237 235 233 237 242 243
231 219 210 210 211 212 210 205 203 199 198 198 200 205 209 212 217 222 227 229 234 237 237 243 242 249 241 235 232 231 236 240 242
236 225 215 214 215 215 214 208 203 200 199 199 198 199 204 209 213 219 225 230 235 238 235 239 240 244 236 228 223 230 234 239 244
252 228 218 217 220 219 216 213 207 203 200 199 201 202 203 207 210 215 221 227 233 236 235 236 233 236 235 230 227 230 234 239 243
280 235 223 218 222 219 219 217 214 209 206 204 205 206 208 210 213 216 221 228 232 235 236 235 231 233 234 232 231 232 233 238 242
287 271 233 225 224 220 218 218 216 216 216 213 211 210 211 213 217 220 223 227 231 233 235 235 235 234 234 234 235 234 235 238 241
257 266 255 245 239 227 221 216 216 218 219 221 220 215 214 216 218 221 226 227 230 231 233 236 240 237 238 238 238 238 239 239 242
284 268 261 252 260 248 240 218 215 218 220 221 222 224 221 220 220 222 226 229 230 233 236 240 243 240 242 242 241 242 243 243 244
284 279 267 266 283 287 232 211 214 216 219 222 223 224 229 225 222 224 225 230 231 232 237 240 242 245 244 244 244 244 245 245 246
276 278 273 269 271 293 209 196 205 212 217 223 225 227 229 230 227 228 229 231 233 233 235 238 242 245 247 247 247 248 247 248 250
281 276 278 278 282 306 324 212 202 212 220 225 228 230 231 232 231 231 232 233 235 235 235 237 242 246 248 250 251 250 250 250 251
277 276 275 276 277 282 303 355 234 224 233 231 231 234 233 235 233 233 234 237 240 239 238 239 242 247 248 249 252 252 253 253 254
281 278 275 270 275 278 280 289 327 200 237 227 233 236 239 241 242 241 240 243 243 241 241 242 244 247 248 248 251 253 255 256 257
274 275 274 270 269 260 259 270 279 270 258 254 244 245 244 244 246 245 246 245 244 242 243 246 247 248 247 246 246 251 256 261 264
277 272 275 269 264 262 261 264 265 259 260 262 263 253 249 248 248 245 246 248 248 246 246 249 252 253 246 241 247 247 267 279 278
284 279 270 268 264 262 261 262 260 258 256 257 260 257 253 252 252 251 253 249 248 246 248 251 249 256 275 265 259 269 273 280 277
279 276 274 272 266 262 262 261 257 255 255 257 260 257 256 254 254 254 252 250 248 249 250 253 257 264 262 268 274 274 273 278 277
278 273 269 268 268 264 261 260 259 256 256 256 257 257 256 254 254 254 254 250 251 253 256 257 259 261 262 265 269 273 276 276 276
279 275 273 268 266 264 262 259 256 255 255 255 255 254 255 254 253 251 253 251 252 254 256 257 259 260 262 264 269 271 273 276 274
284 279 274 271 270 264 261 260 257 254 254 254 254 254 253 253 253 253 255 254 255 257 257 257 255 257 259 262 265 266 268 268 269